Location: Dover
(39.1580°N, 75.5250°W)
Time: 07:47:26
(UTC-04:00)

SeaSat 1 - Visible Passes

Search period start: 19 April 2018 00:00
Search period end: 29 April 2018 00:00
Orbit: 745 x 747 km, 108.0° (Epoch: 18 April)

Date Brightness Start Highest point End Pass type
(mag) Time Alt. Az. Time Alt. Az. Time Alt. Az.
19 Apr 4.9 00:38:47 19° NNW 00:38:47 19° NNW 00:40:08 10° NNW visible
19 Apr 4.7 23:55:36 20° NNE 23:55:36 20° NNE 23:57:32 10° N visible
20 Apr 5.0 23:12:26 12° NE 23:12:26 12° NE 23:13:38 10° NNE visible
21 Apr 4.8 00:52:12 19° NNW 00:52:12 19° NNW 00:53:35 10° NNW visible
22 Apr 4.6 00:09:02 21° NNE 00:09:02 21° NNE 00:11:03 10° N visible
22 Apr 4.9 23:25:51 13° NE 23:25:51 13° NE 23:27:25 10° NNE visible
23 Apr 4.8 01:05:37 19° NNW 01:05:37 19° NNW 01:07:01 10° NNW visible
24 Apr 4.6 00:22:25 22° NNE 00:22:25 22° NNE 00:24:34 10° N visible
24 Apr 4.9 23:39:14 14° NE 23:39:14 14° NE 23:41:08 10° NNE visible
25 Apr 4.7 01:19:01 20° NNW 01:19:01 20° NNW 01:20:28 10° NNW visible
26 Apr 4.5 00:35:49 24° N 00:35:49 24° N 00:38:05 10° N visible
26 Apr 4.8 23:52:36 15° NE 23:52:36 15° NE 23:54:48 10° NNE visible
27 Apr 4.6 01:32:22 20° NNW 01:32:22 20° NNW 01:33:53 10° NNW visible
28 Apr 4.4 00:49:09 26° N 00:49:09 26° N 00:51:34 10° N visible
